INMARSAT 2-F2 R/B(PAM-D)

基本信息
目录编号:
21151
目录名称:
INMARSAT 2-F2 R/B(PAM-D)
国际标识:
1991-018C
轨道中心:
EARTH
物体状态:
在轨
发射日期:
1991-03-08 UTC
国别:
美国 (US)
轨道信息
数据来源: 国际轨道数据
星历时间: 2026-07-13T17:43:48+0800
半长轴: 10883.88km
偏心率: 0.3882404
轨道倾角: 23.182°
近地点辐角: 158.228°
升交点赤经: 210.441°
平近点角: 224.267°
近地点: 280.181km
远地点: 8731.305km
周期: 188.337分钟
每日圈数: 7.645875
详细信息
发射场:
AFETR
轨道高度:
LEO
数据来源:
AOE Integration Group
参考系:
TEME
时间系统:
UTC
历元类型:
SGP4
2D轨道图
3D轨道图
轨道高度分析图
轨道倾角分析图
轨道综合分析图
查看轨道综合分析图